Fryeburg, ME

8:38 PM EST on December 07, 2016 (GMT -0500)
Eastern Slopes Regional

Weather History for KIZG - October, 2012

Change the Weather History Date:

Tuesday, October 9, 2012

  Actual Average Record
Temperature  
Mean Temperature 44 °F -  
Max Temperature 55 °F 60 °F 84 °F (2011)
Min Temperature 32 °F 34 °F 23 °F (2002)
Degree Days  
Heating Degree Days 22    
Moisture  
Dew Point 38 °F    
Average Humidity 91    
Maximum Humidity 100    
Minimum Humidity 64    
Precipitation  
Precipitation 0.00 in - - ()
Sea Level Pressure  
Sea Level Pressure 30.31 in    
Wind  
Wind Speed 1 mph (NNE)    
Max Wind Speed 9 mph    
Max Gust Speed -    
Visibility 6 miles    
Events Fog , Rain    
Averages and records for this station are not official NWS values.
T = Trace of Precipitation, MM = Missing Value Source: NWS Daily Summary

Daily Weather History Graph

Daily Weather History Graph

Search for Another Location

Airport or City:

Trip Planner

Search our weather history database for the weather conditions in past years. The results will help you decide how hot, cold, wet, or windy it might be!

Date:

Astronomy

Oct. 09, 2012 Rise Set
Actual Time 6:51 AM EDT 6:09 PM EDT
Civil Twilight 6:22 AM EDT 6:38 PM EDT
Nautical Twilight 5:49 AM EDT 7:11 PM EDT
Astronomical Twilight 5:15 AM EDT 7:45 PM EDT
Moon 12:12 AM EDT (10/9) 2:46 PM EDT (10/9)
Length of Visible Light 12h 15m
Length of Day
11h 17m
Last Quarter, 37% of the Moon is Illuminated
Oct 9
Last Quarter
Oct 15
New
Oct 21
First Quarter
Oct 29
Full
Nov 6
Last Quarter

Hourly Weather History & Observations

Time (EDT) Temp. Windchill Dew Point Humidity Pressure Visibility Wind Dir Wind Speed Gust Speed Precip Events Conditions
12:09 AM 35.6 °F - 35.6 °F 100% 30.34 in 10.0 mi Calm Calm - N/A   Partly Cloudy
12:22 AM 35.6 °F - 33.8 °F 93% 30.35 in 1.5 mi Calm Calm - N/A   Partly Cloudy
12:24 AM 35.6 °F - 33.8 °F 93% 30.35 in 1.0 mi Calm Calm - N/A   Mist
12:31 AM 35.6 °F - 35.6 °F 100% 30.34 in 1.5 mi Calm Calm - N/A   Partly Cloudy
12:33 AM 35.6 °F - 35.6 °F 100% 30.34 in 4.0 mi Calm Calm - N/A   Partly Cloudy
12:54 AM 35.1 °F - 35.1 °F 100% 30.35 in 9.0 mi Calm Calm - N/A   Clear
1:05 AM 35.6 °F - 35.6 °F 100% 30.34 in 2.0 mi Calm Calm - N/A   Partly Cloudy
1:07 AM 35.6 °F - 35.6 °F 100% 30.34 in 1.2 mi Calm Calm - N/A   Scattered Clouds
1:09 AM 35.6 °F - 35.6 °F 100% 30.34 in 0.8 mi Calm Calm - N/A   Mist
1:31 AM 33.8 °F - 33.8 °F 100% 30.34 in 1.5 mi Calm Calm - N/A   Mostly Cloudy
1:33 AM 33.8 °F - 33.8 °F 100% 30.34 in 3.0 mi Calm Calm - N/A   Scattered Clouds
1:42 AM 33.8 °F - 33.8 °F 100% 30.34 in 0.2 mi Calm Calm - N/A Fog Fog
1:54 AM 33.1 °F - 32.0 °F 96% 30.36 in 0.2 mi Calm Calm - N/A Fog Fog
2:25 AM 33.8 °F - 32.0 °F 93% 30.35 in 1.0 mi Calm Calm - N/A   Mist
2:27 AM 33.8 °F - 32.0 °F 93% 30.35 in 4.0 mi Calm Calm - N/A   Scattered Clouds
2:29 AM 33.8 °F - 32.0 °F 93% 30.35 in 2.0 mi Calm Calm - N/A   Mostly Cloudy
2:31 AM 33.8 °F - 32.0 °F 93% 30.34 in 1.0 mi Calm Calm - N/A   Mist
2:37 AM 33.8 °F - 32.0 °F 93% 30.34 in 0.2 mi Calm Calm - N/A Fog Fog
2:54 AM 32.0 °F - 30.9 °F 96% 30.35 in 0.2 mi Calm Calm - N/A Fog Fog
3:03 AM 32.0 °F - 32.0 °F 100% 30.34 in 1.0 mi Calm Calm - N/A   Mist
3:08 AM 32.0 °F - 32.0 °F 100% 30.34 in 2.5 mi Calm Calm - N/A   Mostly Cloudy
3:22 AM 32.0 °F 28.7 °F 30.2 °F 93% 30.34 in 0.2 mi WNW 3.5 mph - N/A Fog Fog
3:31 AM 32.0 °F - 32.0 °F 100% 30.34 in 1.0 mi Calm Calm - N/A   Mist
3:42 AM 32.0 °F - 32.0 °F 100% 30.33 in 1.2 mi Calm Calm - N/A   Scattered Clouds
3:54 AM 32.0 °F - 32.0 °F 100% 30.35 in 0.2 mi Calm Calm - N/A Fog Fog
4:05 AM 32.0 °F - 32.0 °F 100% 30.34 in 1.0 mi Calm Calm - N/A   Mostly Cloudy
4:29 AM 33.8 °F - 33.8 °F 100% 30.34 in 2.0 mi Calm Calm - N/A   Overcast
4:37 AM 33.8 °F 30.8 °F 33.8 °F 100% 30.34 in 3.0 mi WNW 3.5 mph - N/A   Overcast
4:54 AM 35.1 °F - 35.1 °F 100% 30.36 in 10.0 mi Calm Calm - N/A   Overcast
5:14 AM 35.6 °F - 35.6 °F 100% 30.35 in 10.0 mi Calm Calm - 0.00 in   Overcast
5:54 AM 37.0 °F - 37.0 °F 100% 30.36 in 10.0 mi Calm Calm - 0.00 in   Overcast
6:54 AM 37.9 °F - 37.9 °F 100% 30.36 in 10.0 mi Calm Calm - N/A   Overcast
7:54 AM 39.9 °F - 39.9 °F 100% 30.38 in 10.0 mi Calm Calm - N/A   Overcast
8:54 AM 45.0 °F - 41.0 °F 86% 30.36 in 10.0 mi Calm Calm - 0.00 in   Mostly Cloudy
9:06 AM 46.4 °F 45.2 °F 41.0 °F 81% 30.34 in 10.0 mi North 3.5 mph - N/A   Mostly Cloudy
9:54 AM 48.9 °F - 41.0 °F 74% 30.35 in 10.0 mi North 5.8 mph - 0.00 in Rain Light Rain
10:54 AM 50.0 °F - 41.0 °F 71% 30.35 in 10.0 mi Calm Calm - 0.00 in   Overcast
11:54 AM 53.1 °F - 42.1 °F 66% 30.33 in 10.0 mi Calm Calm - 0.00 in   Overcast
12:54 PM 54.0 °F - 42.1 °F 64% 30.30 in 10.0 mi NE 5.8 mph - N/A   Overcast
1:54 PM 54.0 °F - 42.1 °F 64% 30.28 in 10.0 mi Variable 4.6 mph - N/A   Overcast
2:54 PM 53.1 °F - 43.0 °F 69% 30.27 in 10.0 mi East 6.9 mph - N/A   Overcast
3:54 PM 55.0 °F - 43.0 °F 64% 30.25 in 10.0 mi East 9.2 mph - N/A   Overcast
4:54 PM 52.0 °F - 43.0 °F 71% 30.25 in 10.0 mi ESE 9.2 mph - 0.00 in Rain Light Rain
5:54 PM 50.0 °F - 44.1 °F 80% 30.24 in 10.0 mi Calm Calm - 0.00 in   Overcast
6:23 PM 48.2 °F - 44.6 °F 87% 30.22 in 10.0 mi Calm Calm - N/A   Overcast
6:54 PM 48.9 °F - 45.0 °F 86% 30.24 in 10.0 mi Calm Calm - 0.00 in   Overcast
7:54 PM 48.0 °F - 45.0 °F 89% 30.23 in 10.0 mi Calm Calm - N/A   Overcast
8:02 PM 48.2 °F - 44.6 °F 87% 30.22 in 10.0 mi Calm Calm - N/A   Overcast
8:54 PM 48.9 °F - 46.0 °F 90% 30.22 in 10.0 mi Calm Calm - N/A   Overcast
9:54 PM 48.0 °F - 45.0 °F 89% 30.21 in 10.0 mi Calm Calm - N/A   Overcast
10:06 PM 46.4 °F - 44.6 °F 93% 30.19 in 10.0 mi Calm Calm - N/A   Overcast
10:37 PM 46.4 °F - 46.4 °F 100% 30.19 in 10.0 mi Calm Calm - N/A   Overcast
10:54 PM 48.0 °F - 46.0 °F 93% 30.20 in 10.0 mi Calm Calm - N/A   Overcast
11:54 PM 46.9 °F - 45.0 °F 93% 30.19 in 10.0 mi Calm Calm - N/A   Overcast